X

Important NEWS



New Hub Active

Miami is our new hub! Old members can request transfer via hr@dlxairways.net

Thank you very much and have nice flight.


Deluxe Airways.

X

Tours



Hello again, we created one nice test tour for all pilots to attend. also this is ment to be testing of our tour system

Available Tours

If you find some issues please inform us.

Thank you very much and have nice flight.


Deluxe Airways.

 METAR AND TAF INFORMATION
ArrayMETAR FOR LYBE
59330671 5 LYBE 230400Z 02018KT 9999 SCT030 M04/M10 Q1034 NOSIG LYBE 2019-02-23T04:00:00Z 44.82 20.28 -4.0 -10.0 20 18 6.21 30.531496 TRUE VFR METAR 99.0 LYBE 230330Z 02019KT CAVOK M04/M10 Q1033 NOSIG LYBE 2019-02-23T03:30:00Z 44.82 20.28 -4.0 -10.0 20 19 6.21 30.501968 TRUE VFR METAR 99.0 LYBE 230300Z 01019KT CAVOK M04/M10 Q1032 NOSIG LYBE 2019-02-23T03:00:00Z 44.82 20.28 -4.0 -10.0 10 19 6.21 30.47244 TRUE VFR METAR 99.0

 AIRPORT MAP

 RUNWAY INFORMATION
Runway 12 Runway length 11155 ft Runway width 148 ft
Runway elevation 318 ft Runway displaced threshold 0 ft Runway heading 122
Runway 30 Runway length 11155 ft Runway width 148 ft
Runway elevation 335 ft Runway displaced threshold 1312 ft Runway heading 302

 AIRPORT FREQUENCIES
Type APP Name APP Frequency 119.1 MHZ
Type ATIS Name INFO Frequency 122.925 MHZ
Type TWR Name TWR Frequency 118.1 MHZ

 AIRPORT NEAR NAVIGATION AIDS
Type VOR-DME Name Beograd Frequency 112300 KHZ
Type NDB Name Beograd Frequency 316 KHZ
Type NDB Name Beograd Frequency 380 KHZ
Type NDB Name Beograd Frequency 355 KHZ



Powered by Virtual Airlines Manager [v2.6.2]

Template code change by DeluxeAir